Track STARLINK-1949 now! 10-day predictions STARLINK-1949 is classified as:
1 46777U 20074AQ 21105.65415161 .00000738 00000-0 68487-4 0 9997 2 46777 53.0545 87.9115 0003311 261.9850 98.0763 15.06393215 26821